Location: Country View Observatory
(32.9873°N, 83.6444°W)
Time: 05:04:08
(UTC-04:00)

ISS - Pass Details

Date: 20 September 2019
Orbit: 411 x 421 km, 51.6° (Epoch: 18 October)

Event Time Altitude Azimuth Distance (km) Brightness Sun altitude
Rises 21:29:21 0° 272° (W) 2,334 1.3 -24.6°
Reaches altitude 10° 21:32:29 10° 305° (NW) 1,475 0.0 -25.2°
Maximum altitude 21:33:54 12° 330° (NNW) 1,349 -0.6 -25.5°
Enters shadow 21:35:08 11° 353° (N) 1,445 -0.7 -25.7°
